Location: Lanoux
(43.1180°N, 1.4255°E)
Time: 14:12:42
(UTC+00:00)

Meteor 2-10 - Pass Details

Date: 16 March 2026
Orbit: 736 x 866 km, 81.2° (Epoch: 18 April)

Event Time Altitude Azimuth Distance (km) Brightness Sun altitude
Rises 05:11:38 0° 355° (N) 3,178 7.2 -10.5°
Reaches altitude 10° 05:14:03 10° 1° (N) 2,251 6.5 -10.1°
Maximum altitude 05:18:54 47° 75° (ENE) 983 5.2 -9.2°
Drops below altitude 10° 05:23:46 10° 149° (SSE) 2,265 6.8 -8.3°
Sets 05:26:12 0° 156° (SSE) 3,200 7.5 -7.9°
